GW0907 Weather Reports


Display with metric or nautical units.
time (UTC)temp
F
wind
direction
speed
MPH
gust
MPH
rain 1hr
in
rain 24hr
in
rain mn
in
humidity
%
barometer
mb
20260505075306 68 213 0.0 0.0 0.00 0.00 0.00 93 1017.2
20260505075035 68 213 0.0 0.0 0.00 0.00 0.00 93 1017.3
20260505074509 68 213 0.0 0.0 0.00 0.00 0.00 93 1015.8
20260505074307 68 213 0.0 0.0 0.00 0.00 0.00 93 1017.2
20260505073805 69 213 0.0 0.0 0.00 0.00 0.00 93 1017.2
20260505073304 69 213 0.0 0.0 0.00 0.00 0.00 93 1017.2
20260505073111 68 213 0.0 0.0 0.00 0.00 0.00 93 1015.8
20260505072803 69 213 0.0 0.0 0.00 0.00 0.00 93 1017.2
20260505072305 69 213 0.0 0.0 0.00 0.00 0.00 93 1017.3
20260505071801 69 213 0.0 0.0 0.00 0.00 0.00 93 1017.3
20260505071533 68 213 0.0 0.0 0.00 0.00 0.00 93 1015.9
20260505071300 69 213 0.0 0.0 0.00 0.00 0.00 93 1017.3
20260505070758 69 214 0.0 0.0 0.00 0.00 0.00 93 1017.2
20260505070256 69 213 0.0 0.0 0.00 0.00 0.00 93 1017.2
20260505070007 68 213 0.0 0.0 0.00 0.00 0.00 93 1015.7
20260505065756 69 213 0.0 0.0 0.00 0.00 0.00 93 1017.1
20260505065255 69 213 0.0 1.0 0.00 0.00 0.00 93 1017.1
20260505065028 69 213 0.0 1.0 0.00 0.00 0.00 93 1017.2
20260505064548 68 213 0.0 1.0 0.00 0.00 0.00 93 1015.7
20260505064249 69 213 0.0 0.0 0.00 0.00 0.00 93 1017.2
20260505063748 69 213 0.0 2.0 0.00 0.00 0.00 93 1017.3
20260505063246 69 213 0.0 2.0 0.00 0.00 0.00 93 1017.3
20260505063030 68 213 0.0 2.0 0.00 0.00 0.00 93 1015.8
20260505062744 68 213 0.0 1.0 0.00 0.00 0.00 93 1017.3
20260505062516 68 213 0.0 0.0 0.00 0.00 0.00 93 1017.4
20260505061743 69 213 0.0 0.0 0.00 0.00 0.00 93 1017.4
20260505061518 68 213 0.0 0.0 0.00 0.00 0.00 93 1016.0
20260505061239 69 213 0.0 0.0 0.00 0.00 0.00 93 1017.3
20260505060736 69 213 0.0 0.0 0.00 0.00 0.00 93 1017.5
20260505060235 69 213 0.0 0.0 0.00 0.00 0.00 93 1017.4
20260505060033 68 213 0.0 0.0 0.00 0.00 0.00 93 1016.1
20260505055734 69 214 0.0 0.0 0.00 0.00 0.00 93 1017.5
20260505055235 69 213 0.0 0.0 0.00 0.00 0.00 93 1017.6
20260505055009 69 213 0.0 0.0 0.00 0.00 0.00 93 1017.8
20260505054502 68 214 0.0 0.0 0.00 0.00 0.00 93 1016.4
20260505054229 69 213 0.0 0.0 0.00 0.00 0.00 93 1017.8
20260505053729 69 214 0.0 0.0 0.00 0.00 0.00 92 1017.8
20260505053229 69 213 0.0 0.0 0.00 0.00 0.00 92 1018.0
20260505053044 69 214 0.0 0.0 0.00 0.00 0.00 92 1016.5
20260505052728 69 214 0.0 0.0 0.00 0.00 0.00 92 1018.0
20260505052228 69 194 0.0 0.0 0.00 0.00 0.00 93 1018.2
20260505051729 69 211 0.0 0.0 0.00 0.00 0.00 93 1018.2
20260505051529 69 211 0.0 0.0 0.00 0.00 0.00 93 1016.8
20260505051458 69 211 0.0 0.0 0.00 0.00 0.00 92 1018.3
20260505050725 69 211 0.0 0.0 0.00 0.00 0.00 92 1018.3
20260505050224 70 211 0.0 0.0 0.00 0.00 0.00 92 1018.4
20260505041509 70 211 0.0 0.0 0.00 0.00 0.00 93 1017.5
20260505041217 70 211 0.0 0.0 0.00 0.00 0.00 93 1019.0
20260505040946 70 203 0.0 0.0 0.00 0.00 0.00 92 1019.0
20260505040214 70 203 0.0 0.0 0.00 0.00 0.00 93 1018.9
20260505040051 70 202 0.0 0.0 0.00 0.00 0.00 93 1017.4
20260505035946 70 203 0.0 0.0 0.00 0.00 0.00 92 1019.0
20260505035212 70 203 0.0 0.0 0.00 0.00 0.00 92 1019.0
20260505034713 70 203 0.0 0.0 0.00 0.00 0.00 93 1019.1
20260505034533 70 203 0.0 0.0 0.00 0.00 0.00 93 1017.5
20260505034442 70 202 0.0 0.0 0.00 0.00 0.00 92 1019.1
20260505033708 70 202 0.0 0.0 0.00 0.00 0.00 92 1019.2
20260505033210 70 203 0.0 0.0 0.00 0.00 0.00 92 1019.2
20260505033021 69 203 0.0 0.0 0.00 0.00 0.00 92 1017.7
20260505032721 70 203 0.0 0.0 0.00 0.00 0.00 92 1019.2
20260505032708 70 203 0.0 0.0 0.00 0.00 0.00 92 1019.2
20260505031707 70 202 0.0 0.0 0.00 0.00 0.00 92 1019.2
20260505031511 69 202 0.0 0.0 0.00 0.00 0.00 92 1017.6
20260505031207 70 202 0.0 0.0 0.00 0.00 0.00 92 1019.1
20260505030701 70 202 0.0 0.0 0.00 0.00 0.00 92 1019.0
20260505030155 70 208 0.0 0.0 0.00 0.00 0.00 92 1019.1
20260505030004 69 208 0.0 0.0 0.00 0.00 0.00 92 1017.6
20260505025654 70 208 0.0 0.0 0.00 0.00 0.00 92 1019.1
20260505025150 70 208 0.0 0.0 0.00 0.00 0.00 92 1019.1
20260505024650 69 208 0.0 1.0 0.00 0.00 0.00 92 1019.1
20260505024559 69 208 0.0 1.0 0.00 0.00 0.00 92 1017.6
20260505024147 69 208 0.0 1.0 0.00 0.00 0.00 92 1019.1
20260505023647 69 208 0.0 0.0 0.00 0.00 0.00 91 1019.1
20260505023145 69 208 0.0 0.0 0.00 0.00 0.00 91 1019.1
20260505023034 69 208 0.0 0.0 0.00 0.00 0.00 91 1017.5
20260505022645 69 208 0.0 0.0 0.00 0.00 0.00 91 1018.9
20260505022414 69 208 0.0 1.0 0.00 0.00 0.00 91 1018.9
20260505021645 70 208 0.0 1.0 0.00 0.00 0.00 91 1018.9
20260505021531 69 208 0.0 1.0 0.00 0.00 0.00 91 1017.4
20260505021145 70 208 0.0 0.0 0.00 0.00 0.00 91 1018.9
20260505020638 70 208 0.0 0.0 0.00 0.00 0.00 91 1018.8
20260505020138 70 208 0.0 0.0 0.00 0.00 0.00 91 1018.8
20260505020024 69 208 0.0 0.0 0.00 0.00 0.00 91 1017.2
20260505015911 70 208 0.0 0.0 0.00 0.00 0.00 91 1018.7
20260505015137 70 208 0.0 0.0 0.00 0.00 0.00 91 1018.9
20260505014637 70 208 0.0 0.0 0.00 0.00 0.00 91 1018.8
20260505014524 69 208 0.0 0.0 0.00 0.00 0.00 91 1017.3
20260505014136 70 208 0.0 0.0 0.00 0.00 0.00 91 1018.8
20260505013635 70 208 0.0 0.0 0.00 0.00 0.00 91 1018.7
20260505013134 70 208 0.0 0.0 0.00 0.00 0.00 91 1018.6
20260505013016 70 208 0.0 0.0 0.00 0.00 0.00 91 1017.1
20260505012628 70 208 0.0 0.0 0.00 0.00 0.00 91 1018.7
20260505012118 70 208 0.0 0.0 0.00 0.00 0.00 91 1018.6
20260505011848 70 208 0.0 0.0 0.00 0.00 0.00 91 1018.5
20260505011547 70 208 0.0 0.0 0.00 0.00 0.00 91 1016.9
20260505011119 71 208 0.0 0.0 0.00 0.00 0.00 90 1018.5
20260505010618 71 208 0.0 0.0 0.00 0.00 0.00 90 1018.4
20260505010117 71 208 0.0 0.0 0.00 0.00 0.00 90 1018.2
20260505010029 71 208 0.0 0.0 0.00 0.00 0.00 90 1016.6
20260505005613 71 208 0.0 1.0 0.00 0.00 0.00 90 1018.2
20260505005114 72 208 0.0 1.0 0.00 0.00 0.00 90 1018.2
20260505004843 72 208 0.0 2.0 0.00 0.00 0.00 89 1018.2
20260505004520 71 208 0.0 2.0 0.00 0.00 0.00 89 1016.5
20260505004115 72 208 0.0 2.0 0.00 0.00 0.00 89 1018.1
20260505003610 72 208 0.0 2.0 0.00 0.00 0.00 89 1018.2
20260505003111 72 208 0.0 2.0 0.00 0.00 0.00 89 1018.1
20260505003105 72 208 0.0 0.0 0.00 0.00 0.00 89 1016.5
20260505002608 72 208 0.0 2.0 0.00 0.00 0.00 89 1018.0
20260505002107 73 208 0.0 0.0 0.00 0.00 0.00 88 1018.0
20260505001833 73 208 0.0 1.0 0.00 0.00 0.00 89 1018.1
20260505001546 72 208 0.0 1.0 0.00 0.00 0.00 89 1016.5
20260505001056 73 208 0.0 1.0 0.00 0.00 0.00 88 1018.0
20260505000553 73 209 0.0 1.0 0.00 0.00 0.00 88 1018.0
20260505000053 73 209 0.0 1.0 0.00 0.00 0.00 88 1018.1
20260505000023 73 209 0.0 1.0 0.00 0.00 0.00 88 1016.4
20260504235554 73 209 0.0 1.0 0.00 0.00 0.00 88 1018.1
20260504235052 74 209 0.0 1.0 0.00 0.00 0.00 87 1018.1
20260504234826 74 209 0.0 0.0 0.00 0.00 0.00 87 1018.1
20260504234054 74 209 0.0 0.0 0.00 0.00 0.00 86 1018.0
20260504233547 74 209 0.0 1.0 0.00 0.00 0.00 86 1017.8
20260504233046 74 209 0.0 1.0 0.00 0.00 0.00 86 1017.8
20260504233025 74 209 0.0 1.0 0.00 0.00 0.00 86 1016.3
20260504232543 74 257 0.0 1.0 0.00 0.00 0.00 86 1017.8
20260504232041 75 285 0.0 2.0 0.00 0.00 0.00 85 1017.6
20260504231541 75 225 0.0 2.0 0.00 0.00 0.00 86 1017.7
20260504231532 74 225 1.0 2.0 0.00 0.00 0.00 86 1016.2
20260504231041 75 205 0.0 1.0 0.00 0.00 0.00 86 1017.7
20260504230547 75 179 1.0 4.0 0.00 0.00 0.00 85 1017.6
20260504230540 75 300 0.0 2.0 0.00 0.00 0.00 86 1017.7
20260504230001 75 179 0.0 2.0 0.00 0.00 0.00 85 1016.1
20260504225533 75 107 1.0 4.0 0.00 0.00 0.00 86 1017.6
20260504225035 75 207 0.0 3.0 0.00 0.00 0.00 86 1017.5
20260504224805 75 286 0.0 2.0 0.00 0.00 0.00 87 1017.5
20260504224644 74 286 0.0 2.0 0.00 0.00 0.00 87 1015.9
20260504224034 75 286 0.0 2.0 0.00 0.00 0.00 87 1017.3
20260504223533 75 246 0.0 2.0 0.00 0.00 0.00 87 1017.4
20260504223031 75 340 1.0 4.0 0.00 0.00 0.00 86 1017.3
20260504223024 74 306 0.0 2.0 0.00 0.00 0.00 86 1015.7
20260504222802 75 327 1.0 4.0 0.00 0.00 0.00 85 1017.1
20260504222257 75 284 1.0 4.0 0.00 0.00 0.00 85 1017.0
20260504221529 76 227 1.0 4.0 0.00 0.00 0.00 85 1017.1
20260504221519 75 227 0.0 4.0 0.00 0.00 0.00 85 1015.6
20260504221029 76 94 1.0 4.0 0.00 0.00 0.00 85 1017.1
20260504220526 76 256 1.0 5.0 0.00 0.00 0.00 85 1017.1
20260504220020 76 196 1.0 6.0 0.00 0.00 0.00 84 1017.0
20260504220009 76 207 0.0 5.0 0.00 0.00 0.00 84 1015.4
20260504215746 77 286 1.0 6.0 0.00 0.00 0.00 84 1017.0
20260504215014 77 238 2.0 7.0 0.00 0.00 0.00 82 1016.9
20260504214608 77 297 1.0 7.0 0.00 0.00 0.00 81 1015.3
20260504214514 78 298 2.0 7.0 0.00 0.00 0.00 81 1016.9
20260504214014 78 298 2.0 6.0 0.00 0.00 0.00 81 1016.6
20260504213512 78 240 2.0 6.0 0.00 0.00 0.00 80 1016.5
20260504213055 78 185 1.0 7.0 0.00 0.00 0.00 79 1015.0
20260504213013 78 185 2.0 7.0 0.00 0.00 0.00 79 1016.6
20260504212512 79 323 2.0 7.0 0.00 0.00 0.00 79 1016.6
20260504212011 79 269 2.0 5.0 0.00 0.00 0.00 81 1016.6
20260504211534 78 302 1.0 5.0 0.00 0.00 0.00 79 1014.9
20260504211510 79 304 2.0 5.0 0.00 0.00 0.00 79 1016.6
20260504211009 79 355 2.0 7.0 0.00 0.00 0.00 79 1016.6
20260504210509 80 24 2.0 7.0 0.00 0.00 0.00 78 1016.5
20260504210018 80 326 1.0 5.0 0.00 0.00 0.00 80 1014.9
20260504210010 80 331 2.0 5.0 0.00 0.00 0.00 80 1016.5
20260504205740 79 280 2.0 6.0 0.00 0.00 0.00 80 1016.4
20260504205241 79 261 2.0 6.0 0.00 0.00 0.00 81 1016.4
20260504204518 78 252 1.0 9.0 0.00 0.00 0.00 80 1014.8
20260504204509 79 252 3.0 9.0 0.00 0.00 0.00 80 1016.4
20260504204010 79 317 3.0 9.0 0.00 0.00 0.00 81 1016.4
20260504203508 78 0 2.0 6.0 0.00 0.00 0.00 83 1016.3
20260504203013 78 287 2.0 5.0 0.00 0.00 0.00 83 1014.7
20260504203008 78 310 2.0 5.0 0.00 0.00 0.00 83 1016.4
20260504202510 78 209 2.0 5.0 0.00 0.00 0.00 83 1016.5
20260504202241 78 40 2.0 8.0 0.00 0.00 0.00 82 1016.5
20260504201741 79 297 2.0 8.0 0.00 0.00 0.00 81 1016.5
20260504201505 78 314 2.0 8.0 0.00 0.00 0.00 81 1014.8
20260504201011 79 320 2.0 5.0 0.00 0.00 0.00 80 1016.6
20260504200517 80 311 2.0 7.0 0.00 0.00 0.00 79 1016.6
20260504200511 79 257 2.0 7.0 0.00 0.00 0.00 79 1016.5
20260504200005 79 344 2.0 7.0 0.00 0.00 0.00 79 1015.0
20260504195508 80 253 2.0 5.0 0.00 0.00 0.00 80 1016.6
20260504195008 80 140 2.0 6.0 0.00 0.00 0.00 80 1016.6
20260504194738 79 18 2.0 7.0 0.00 0.00 0.00 82 1016.6
20260504194627 79 19 2.0 6.0 0.00 0.00 0.00 83 1014.9
20260504194007 79 208 2.0 7.0 0.00 0.00 0.00 81 1016.7
20260504193507 79 67 3.0 6.0 0.00 0.00 0.00 81 1016.7
20260504193047 79 86 2.0 7.0 0.00 0.00 0.00 79 1015.1
20260504193004 80 302 2.0 7.0 0.00 0.00 0.00 79 1016.8
20260504192505 80 214 2.0 8.0 0.00 0.00 0.00 79 1016.8
20260504192003 80 209 2.0 8.0 0.00 0.00 0.00 78 1016.7
20260504191545 80 303 1.0 6.0 0.00 0.00 0.00 80 1015.1
20260504191502 80 322 3.0 6.0 0.00 0.00 0.00 79 1016.7
20260504191002 81 336 3.0 6.0 0.00 0.00 0.00 78 1016.9
20260504190729 81 344 3.0 7.0 0.00 0.00 0.00 77 1016.9
20260504190230 82 331 2.0 9.0 0.00 0.00 0.00 76 1016.9
20260504190117 81 360 3.0 9.0 0.00 0.00 0.00 76 1015.2
20260504185458 82 289 2.0 9.0 0.00 0.00 0.00 75 1016.9
20260504184957 82 273 2.0 5.0 0.00 0.00 0.00 75 1016.9
20260504184513 82 289 1.0 6.0 0.00 0.00 0.00 74 1015.4
20260504184456 83 284 2.0 6.0 0.00 0.00 0.00 73 1017.0
20260504183953 83 247 3.0 7.0 0.00 0.00 0.00 75 1016.9
20260504183447 83 309 2.0 7.0 0.00 0.00 0.00 78 1017.0
20260504183102 82 264 2.0 5.0 0.00 0.00 0.00 76 1015.3
20260504182937 82 331 2.0 7.0 0.00 0.00 0.00 76 1017.0
20260504182437 81 31 3.0 7.0 0.00 0.00 0.00 77 1016.9
20260504181937 81 284 3.0 7.0 0.00 0.00 0.00 78 1017.1
20260504181554 81 262 3.0 7.0 0.00 0.00 0.00 75 1015.4
20260504181437 81 316 3.0 8.0 0.00 0.00 0.00 75 1017.1
20260504180936 81 42 2.0 8.0 0.00 0.00 0.00 74 1016.9
20260504180434 82 346 2.0 6.0 0.00 0.00 0.00 75 1017.1
20260504180053 81 307 2.0 6.0 0.00 0.00 0.00 76 1015.6
20260504175934 82 280 2.0 6.0 0.00 0.00 0.00 75 1017.3
20260504175434 82 168 3.0 8.0 0.00 0.00 0.00 73 1017.3
20260504174933 82 292 3.0 8.0 0.00 0.00 0.00 74 1017.2
20260504174703 82 348 3.0 7.0 0.00 0.00 0.00 74 1017.3
20260504174556 81 206 2.0 7.0 0.00 0.00 0.00 75 1015.7
20260504174202 81 336 3.0 9.0 0.00 0.00 0.00 74 1017.4
20260504173432 81 77 3.0 9.0 0.00 0.00 0.00 74 1017.4
20260504173155 81 321 3.0 7.0 0.00 0.00 0.00 75 1017.4
20260504173041 81 345 2.0 7.0 0.00 0.00 0.00 75 1015.8
20260504172417 81 312 2.0 6.0 0.00 0.00 0.00 74 1017.4
20260504171915 81 301 3.0 6.0 0.00 0.00 0.00 74 1017.6
20260504171613 80 336 3.0 6.0 0.00 0.00 0.00 74 1016.2
20260504171414 81 127 2.0 6.0 0.00 0.00 0.00 75 1017.8
20260504170915 80 119 3.0 7.0 0.00 0.00 0.00 74 1017.8
20260504170414 81 244 4.0 7.0 0.00 0.00 0.00 73 1017.7
20260504160419 80 336 3.0 7.0 0.00 0.00 0.00 74 1018.5
20260504150904 78 15 3.0 9.0 0.00 0.00 0.00 75 1018.7
20260504150404 78 71 3.0 8.0 0.00 0.00 0.00 75 1018.7
20260504150135 78 196 2.0 5.0 0.00 0.00 0.00 77 1018.6
20260504140900 78 252 1.0 5.0 0.00 0.00 0.00 81 1018.5
20260504140400 77 145 3.0 10.0 0.00 0.00 0.00 81 1018.7
20260504140106 77 32 2.0 10.0 0.00 0.00 0.00 81 1017.1
20260504130351 76 355 2.0 6.0 0.00 0.00 0.00 85 1018.8
20260504110316 71 92 0.0 4.0 0.00 0.00 0.00 91 1018.4
20260504100305 71 135 1.0 5.0 0.00 0.00 0.00 90 1018.0
20260504081751 71 92 1.0 5.0 0.00 0.00 0.00 91 1017.2
20260504081509 71 9 1.0 5.0 0.00 0.00 0.00 91 1015.8
20260504081248 71 64 1.0 5.0 0.00 0.00 0.00 91 1017.2
20260504080753 71 40 1.0 7.0 0.00 0.00 0.00 91 1017.3
20260504080748 71 327 1.0 7.0 0.00 0.00 0.00 91 1017.2